Home > Weather > Wright > Past weeks

Flag for USA Weather for the Past 2 Weeks in Wright, Florida, USA

Now
82 °F

Passing clouds.


Feels Like: 85 °F
Forecast: 70 / 83 °F
Wind: 10 mph from South

Location: Hurlburt Field

Current Time: Apr 29, 2016 at 2:46:36 PM

Latest Report: Apr 29, 2016 at 1:58 PM


Visibility: 10 mi

Pressure: 29.96 "Hg

Humidity: 66%

Dew Point: 69 °F

Location of WrightLocation

Historic Weather in Wright — Graph

°F

Wright Temperature Yesterday

Maximum temperature yesterday: 77 °F (at 1:55 PM)
Minimum temperature yesterday: 69 °F (at 5:58 AM)
Average temperature yesterday: 74 °F

High & Low Weather Summary for the Past Weeks

 TemperatureHumidityPressure
High83 °F (Apr 23, 1:58 PM)100% (Apr 14, 2:03 PM)30.29 "Hg (Apr 14, 2:03 PM)
Low54 °F (Apr 19, 5:58 AM)29% (Apr 23, 4:58 PM)29.81 "Hg (Apr 27, 9:03 PM)
Average69 °F76%30.02 "Hg
* Reported Apr 14 12:58 PM — Apr 29 12:58 PM, Wright, Weather by CustomWeather, © 2016

Note: Actual official high and low records may vary slightly from our data, if they occured in-between our weather recording intervals... More about our weather records

Advertising

Wright Weather History for the Previous 24 Hours

Scroll right to see more
 ConditionsComfort  
Time TempWeatherWind HumidityBarometerVisibility
12:58 PM
Fri, Apr 29
82 °FSunny.12 mph55%29.96 "Hg10 mi
11:58 AM81 °FSunny.9 mph59%29.97 "Hg4 mi
10:58 AM79 °FSunny.10 mph69%29.98 "Hg10 mi
9:58 AM79 °FSunny.8 mph73%29.98 "Hg10 mi
8:58 AM77 °FSunny.6 mph75%29.98 "Hg10 mi
7:58 AM72 °FSunny.3 mph88%29.98 "Hg10 mi
6:58 AM65 °FSunny.2 mph97%29.97 "Hg10 mi
5:58 AM64 °FPassing clouds.3 mph97%29.97 "Hg10 mi
4:58 AM64 °FPassing clouds.5 mph98%29.97 "Hg10 mi
3:58 AM63 °FClear.3 mph98%29.96 "Hg10 mi
2:58 AM64 °FMild.N/A97%29.96 "HgN/A
1:58 AM64 °FClear.6 mph98%29.96 "Hg10 mi
12:58 AM65 °FClear.5 mph97%29.96 "Hg10 mi
9:58 PM
Thu, Apr 28
71 °FPassing clouds.2 mph86%29.98 "Hg10 mi
7:58 PM73 °FPassing clouds.No wind78%29.94 "Hg10 mi
6:58 PM75 °FBroken clouds.1 mph70%29.93 "Hg10 mi
5:58 PM76 °FBroken clouds.2 mph65%29.94 "Hg10 mi
4:58 PM75 °FSunny.3 mph70%29.93 "Hg10 mi
3:58 PM75 °FPartly sunny.6 mph69%29.95 "Hg10 mi
2:58 PM77 °FPartly sunny.7 mph59%29.94 "Hg10 mi
Weather by CustomWeather, © 2016

See weather overviewHow to use our weather pages